QPF
0.01 0.00 0.00 0.00 0.00 0.00 0.01 0.01 0.01 0.02 0.01 0.01 0.01 0.02 0.03 0.03 0.03 0.03 0.02 0.02 0.03 0.05 0.06 0.06 0.06 0.06 0.06 0.05 0.05 0.06 0.05 0.03 0.02 0.02 0.04 0.04 0.03 0.03 0.03 0.03 0.03 0.03 0.03 0.05
0.02 0.01 0.00 0.00 0.00 0.00 0.01 0.01 0.02 0.01 0.01 0.01 0.01 0.01 0.02 0.03 0.02 0.02 0.02 0.02 0.02 0.03 0.03 0.04 0.05 0.05 0.05 0.04 0.06 0.07 0.06 0.04 0.02 0.02 0.03 0.04 0.04 0.03 0.03 0.02 0.02 0.02 0.03 0.03
0.04 0.02 0.01 0.00 0.00 0.00 0.01 0.01 0.01 0.01 0.01 0.01 0.01 0.02 0.01 0.01 0.01 0.02 0.03 0.02 0.01 0.01 0.01 0.02 0.03 0.03 0.03 0.04 0.05 0.06 0.06 0.04 0.03 0.03 0.02 0.02 0.03 0.04 0.03 0.03 0.03 0.02 0.02 0.02
0.03 0.03 0.02 0.01 0.00 0.01 0.01 0.01 0.00 0.01 0.01 0.01 0.01 0.02 0.02 0.02 0.02 0.02 0.02 0.02 0.02 0.01 0.01 0.02 0.03 0.03 0.03 0.05 0.05 0.05 0.05 0.04 0.03 0.03 0.02 0.02 0.02 0.04 0.04 0.04 0.03 0.03 0.02 0.03
0.02 0.02 0.03 0.02 0.01 0.01 0.01 0.02 0.02 0.01 0.02 0.02 0.02 0.01 0.02 0.03 0.03 0.03 0.02 0.03 0.03 0.01 0.01 0.02 0.03 0.04 0.04 0.05 0.05 0.04 0.03 0.02 0.02 0.01 0.01 0.02 0.02 0.03 0.04 0.03 0.03 0.02 0.02 0.03
0.02 0.02 0.03 0.03 0.02 0.02 0.02 0.03 0.03 0.03 0.04 0.04 0.03 0.02 0.03 0.03 0.04 0.04 0.03 0.04 0.04 0.03 0.02 0.03 0.03 0.03 0.02 0.03 0.03 0.02 0.02 0.02 0.02 0.02 0.01 0.01 0.01 0.02 0.03 0.03 0.03 0.03 0.02 0.03
0.02 0.03 0.03 0.02 0.02 0.02 0.04 0.04 0.04 0.05 0.05 0.05 0.05 0.05 0.04 0.05 0.04 0.04 0.05 0.05 0.05 0.05 0.04 0.03 0.02 0.02 0.02 0.02 0.02 0.01 0.02 0.02 0.01 0.01 0.01 0.01 0.01 0.01 0.01 0.02 0.03 0.03 0.04 0.05
0.04 0.04 0.04 0.03 0.03 0.04 0.05 0.04 0.03 0.04 0.06 0.06 0.05 0.04 0.04 0.05 0.04 0.03 0.04 0.04 0.04 0.05 0.04 0.03 0.02 0.02 0.01 0.01 0.02 0.02 0.02 0.02 0.02 0.01 0.01 0.00 0.01 0.01 0.01 0.01 0.01 0.02 0.03 0.03
0.05 0.05 0.05 0.05 0.05 0.05 0.04 0.03 0.03 0.04 0.05 0.05 0.04 0.04 0.04 0.05 0.04 0.03 0.02 0.03 0.04 0.04 0.05 0.04 0.03 0.02 0.02 0.02 0.02 0.03 0.04 0.03 0.02 0.02 0.02 0.01 0.01 0.01 0.01 0.01 0.01 0.01 0.01 0.01
0.03 0.03 0.03 0.03 0.03 0.03 0.03 0.03 0.02 0.02 0.03 0.03 0.03 0.03 0.04 0.03 0.03 0.03 0.03 0.02 0.05 0.04 0.05 0.05 0.05 0.05 0.04 0.03 0.03 0.03 0.03 0.03 0.03 0.02 0.02 0.02 0.02 0.01 0.01 0.01 0.01 0.02 0.02 0.02
0.01 0.01 0.01 0.01 0.01 0.01 0.01 0.02 0.02 0.03 0.03 0.03 0.03 0.02 0.03 0.02 0.02 0.03 0.02 0.02 0.04 0.06 0.05 0.04 0.06 0.06 0.06 0.05 0.04 0.03 0.03 0.03 0.03 0.03 0.02 0.02 0.02 0.02 0.02 0.01 0.02 0.02 0.02 0.03
0.02 0.01 0.02 0.01 0.01 0.01 0.01 0.02 0.02 0.03 0.03 0.03 0.04 0.04 0.03 0.01 0.02 0.02 0.02 0.02 0.02 0.03 0.04 0.04 0.04 0.05 0.06 0.07 0.05 0.04 0.03 0.03 0.03 0.02 0.02 0.02 0.03 0.03 0.03 0.02 0.02 0.02 0.01 0.01
0.02 0.01 0.01 0.01 0.00 0.01 0.02 0.02 0.02 0.03 0.03 0.04 0.04 0.04 0.03 0.01 0.01 0.01 0.01 0.01 0.01 0.01 0.03 0.03 0.04 0.05 0.05 0.05 0.06 0.05 0.04 0.03 0.03 0.02 0.01 0.02 0.02 0.02 0.03 0.02 0.02 0.02 0.02 0.02
0.02 0.01 0.01 0.01 0.01 0.02 0.02 0.02 0.02 0.03 0.03 0.04 0.04 0.03 0.02 0.01 0.01 0.01 0.01 0.01 0.01 0.01 0.02 0.02 0.02 0.03 0.04 0.05 0.06 0.06 0.05 0.04 0.03 0.02 0.01 0.01 0.01 0.01 0.02 0.02 0.02 0.02 0.02 0.02
0.02 0.02 0.03 0.03 0.03 0.02 0.02 0.02 0.02 0.03 0.03 0.05 0.05 0.04 0.03 0.02 0.01 0.01 0.01 0.01 0.01 0.01 0.01 0.01 0.01 0.03 0.04 0.04 0.05 0.04 0.05 0.05 0.04 0.03 0.02 0.01 0.01 0.01 0.01 0.02 0.02 0.02 0.02 0.02
0.03 0.03 0.02 0.02 0.02 0.02 0.02 0.02 0.03 0.04 0.04 0.03 0.04 0.05 0.05 0.04 0.03 0.02 0.02 0.02 0.02 0.02 0.01 0.01 0.01 0.01 0.02 0.03 0.05 0.05 0.06 0.05 0.05 0.04 0.03 0.02 0.01 0.01 0.01 0.02 0.02 0.02 0.02 0.02
0.02 0.02 0.01 0.01 0.01 0.01 0.02 0.03 0.03 0.04 0.04 0.03 0.02 0.02 0.04 0.05 0.05 0.04 0.03 0.03 0.03 0.02 0.02 0.01 0.01 0.01 0.01 0.02 0.03 0.05 0.07 0.07 0.05 0.03 0.02 0.02 0.02 0.03 0.03 0.03 0.03 0.02 0.02 0.02
0.02 0.02 0.02 0.01 0.01 0.01 0.01 0.02 0.03 0.04 0.04 0.02 0.02 0.02 0.02 0.02 0.03 0.03 0.03 0.02 0.02 0.01 0.01 0.01 0.01 0.01 0.01 0.02 0.03 0.03 0.04 0.05 0.06 0.04 0.03 0.03 0.03 0.04 0.05 0.07 0.07 0.07 0.06 0.04
0.02 0.02 0.01 0.01 0.01 0.01 0.01 0.01 0.02 0.03 0.03 0.03 0.03 0.02 0.01 0.01 0.01 0.01 0.01 0.02 0.02 0.02 0.01 0.01 0.01 0.01 0.01 0.02 0.04 0.03 0.03 0.03 0.04 0.03 0.02 0.02 0.03 0.03 0.04 0.06 0.06 0.07 0.06 0.06
0.01 0.01 0.02 0.02 0.01 0.01 0.01 0.02 0.03 0.03 0.03 0.03 0.03 0.02 0.01 0.01 0.01 0.01 0.01 0.03 0.04 0.02 0.02 0.03 0.02 0.01 0.01 0.02 0.04 0.03 0.03 0.03 0.03 0.02 0.01 0.01 0.02 0.02 0.03 0.04 0.05 0.05 0.04 0.04
0.01 0.02 0.03 0.02 0.01 0.00 0.01 0.03 0.05 0.04 0.03 0.02 0.02 0.02 0.02 0.01 0.01 0.01 0.02 0.04 0.05 0.04 0.04 0.04 0.03 0.02 0.02 0.02 0.04 0.04 0.03 0.03 0.03 0.02 0.01 0.01 0.01 0.02 0.02 0.02 0.03 0.04 0.03 0.03
0.01 0.01 0.01 0.00 0.00 0.01 0.01 0.02 0.05 0.04 0.02 0.01 0.01 0.01 0.02 0.02 0.02 0.02 0.02 0.04 0.06 0.05 0.06 0.04 0.03 0.03 0.03 0.03 0.04 0.06 0.04 0.04 0.04 0.02 0.01 0.01 0.01 0.01 0.02 0.02 0.02 0.02 0.02 0.02
0.00 0.00 0.00 0.00 0.00 0.00 0.01 0.02 0.03 0.02 0.01 0.01 0.01 0.01 0.02 0.02 0.02 0.03 0.04 0.05 0.05 0.05 0.06 0.06 0.04 0.03 0.03 0.03 0.04 0.07 0.06 0.05 0.04 0.02 0.01 0.01 0.01 0.01 0.01 0.01 0.02 0.02 0.02 0.02
0.00 0.00 0.00 0.00 0.00 0.01 0.01 0.02 0.01 0.01 0.01 0.01 0.01 0.01 0.02 0.03 0.04 0.04 0.04 0.04 0.05 0.05 0.05 0.05 0.05 0.03 0.03 0.03 0.04 0.08 0.07 0.05 0.04 0.02 0.01 0.01 0.01 0.01 0.01 0.01 0.02 0.02 0.02 0.02
0.01 0.01 0.00 0.01 0.01 0.01 0.02 0.02 0.01 0.01 0.01 0.01 0.01 0.01 0.01 0.02 0.03 0.04 0.04 0.03 0.03 0.03 0.04 0.04 0.04 0.03 0.02 0.03 0.05 0.09 0.07 0.06 0.04 0.02 0.02 0.02 0.02 0.01 0.01 0.01 0.02 0.02 0.02 0.02
0.01 0.01 0.01 0.01 0.01 0.01 0.02 0.02 0.01 0.01 0.01 0.01 0.01 0.01 0.01 0.01 0.02 0.05 0.05 0.04 0.03 0.02 0.03 0.03 0.03 0.03 0.02 0.02 0.05 0.09 0.08 0.05 0.03 0.02 0.01 0.01 0.02 0.01 0.01 0.01 0.02 0.02 0.02 0.02
0.01 0.01 0.01 0.01 0.01 0.02 0.02 0.01 0.00 0.00 0.00 0.00 0.01 0.01 0.01 0.02 0.03 0.04 0.04 0.04 0.05 0.05 0.04 0.04 0.04 0.04 0.03 0.03 0.06 0.10 0.08 0.04 0.03 0.02 0.02 0.02 0.02 0.01 0.01 0.01 0.01 0.02 0.03 0.03
MSLP
1009.50 1009.73 1009.98 1010.23 1010.47 1010.66 1010.77 1010.77 1010.66 1010.44 1010.15 1009.82 1009.51 1009.27 1009.14 1009.15 1009.29 1009.57 1009.95 1010.40 1010.86 1011.32 1011.74 1012.11 1012.43 1012.71 1012.96 1013.21 1013.47 1013.75 1014.04 1014.35 1014.67 1015.00 1015.32 1015.63 1015.93 1016.22 1016.51 1016.80 1017.10 1017.41 1017.74 1018.08
1010.10 1010.26 1010.38 1010.45 1010.46 1010.43 1010.33 1010.17 1009.96 1009.73 1009.49 1009.28 1009.12 1009.05 1009.09 1009.22 1009.46 1009.78 1010.16 1010.56 1010.97 1011.35 1011.70 1012.02 1012.31 1012.57 1012.82 1013.07 1013.32 1013.59 1013.87 1014.17 1014.47 1014.78 1015.09 1015.41 1015.74 1016.06 1016.40 1016.74 1017.08 1017.43 1017.79 1018.15
1010.62 1010.70 1010.69 1010.59 1010.43 1010.21 1009.95 1009.68 1009.42 1009.19 1009.02 1008.92 1008.92 1009.00 1009.17 1009.42 1009.73 1010.07 1010.42 1010.77 1011.10 1011.40 1011.68 1011.93 1012.16 1012.39 1012.62 1012.85 1013.10 1013.35 1013.60 1013.87 1014.14 1014.43 1014.73 1015.05 1015.39 1015.75 1016.13 1016.53 1016.93 1017.34 1017.73 1018.12
1010.97 1010.96 1010.83 1010.61 1010.31 1009.96 1009.61 1009.28 1009.01 1008.81 1008.72 1008.74 1008.86 1009.07 1009.36 1009.69 1010.03 1010.38 1010.70 1010.98 1011.23 1011.45 1011.64 1011.83 1012.01 1012.19 1012.39 1012.60 1012.81 1013.03 1013.25 1013.47 1013.71 1013.96 1014.24 1014.55 1014.90 1015.29 1015.72 1016.17 1016.63 1017.10 1017.55 1017.98
1011.10 1010.98 1010.76 1010.44 1010.05 1009.64 1009.25 1008.91 1008.67 1008.54 1008.53 1008.66 1008.89 1009.21 1009.57 1009.95 1010.32 1010.65 1010.93 1011.15 1011.33 1011.47 1011.59 1011.70 1011.83 1011.97 1012.13 1012.30 1012.48 1012.66 1012.84 1013.01 1013.20 1013.41 1013.66 1013.96 1014.31 1014.71 1015.17 1015.67 1016.19 1016.72 1017.22 1017.71
1010.97 1010.76 1010.45 1010.07 1009.65 1009.23 1008.85 1008.56 1008.37 1008.32 1008.41 1008.63 1008.95 1009.33 1009.75 1010.15 1010.52 1010.83 1011.06 1011.22 1011.33 1011.41 1011.46 1011.53 1011.60 1011.70 1011.82 1011.96 1012.10 1012.23 1012.37 1012.50 1012.65 1012.81 1013.03 1013.30 1013.64 1014.05 1014.53 1015.06 1015.63 1016.20 1016.77 1017.30
1010.60 1010.30 1009.93 1009.53 1009.12 1008.74 1008.43 1008.21 1008.11 1008.15 1008.32 1008.61 1008.98 1009.41 1009.84 1010.24 1010.58 1010.85 1011.03 1011.14 1011.20 1011.21 1011.22 1011.24 1011.28 1011.34 1011.42 1011.53 1011.63 1011.73 1011.83 1011.92 1012.03 1012.16 1012.34 1012.59 1012.92 1013.33 1013.82 1014.38 1014.97 1015.59 1016.20 1016.77
1010.02 1009.65 1009.27 1008.89 1008.53 1008.23 1008.01 1007.89 1007.90 1008.02 1008.26 1008.59 1008.98 1009.40 1009.81 1010.17 1010.47 1010.68 1010.81 1010.86 1010.87 1010.84 1010.80 1010.78 1010.79 1010.82 1010.88 1010.95 1011.03 1011.10 1011.17 1011.24 1011.33 1011.44 1011.60 1011.84 1012.16 1012.57 1013.06 1013.63 1014.25 1014.89 1015.54 1016.16
1009.29 1008.90 1008.54 1008.21 1007.95 1007.76 1007.66 1007.65 1007.75 1007.94 1008.22 1008.56 1008.94 1009.31 1009.65 1009.94 1010.16 1010.30 1010.36 1010.35 1010.30 1010.23 1010.16 1010.10 1010.08 1010.08 1010.12 1010.17 1010.23 1010.29 1010.35 1010.42 1010.50 1010.61 1010.78 1011.02 1011.34 1011.76 1012.26 1012.84 1013.48 1014.14 1014.82 1015.48
1008.49 1008.12 1007.81 1007.58 1007.44 1007.38 1007.41 1007.51 1007.69 1007.93 1008.21 1008.52 1008.83 1009.11 1009.35 1009.53 1009.64 1009.68 1009.65 1009.58 1009.47 1009.35 1009.24 1009.16 1009.10 1009.08 1009.10 1009.14 1009.19 1009.25 1009.32 1009.41 1009.51 1009.65 1009.84 1010.11 1010.45 1010.89 1011.41 1012.01 1012.66 1013.36 1014.06 1014.76
1007.67 1007.36 1007.15 1007.05 1007.04 1007.12 1007.27 1007.48 1007.71 1007.96 1008.21 1008.44 1008.64 1008.80 1008.90 1008.93 1008.91 1008.83 1008.70 1008.54 1008.37 1008.20 1008.05 1007.93 1007.86 1007.82 1007.82 1007.85 1007.91 1007.99 1008.08 1008.20 1008.35 1008.54 1008.78 1009.09 1009.48 1009.96 1010.51 1011.13 1011.82 1012.53 1013.27 1014.00
1006.87 1006.66 1006.58 1006.62 1006.77 1006.98 1007.23 1007.50 1007.76 1007.98 1008.16 1008.28 1008.33 1008.33 1008.26 1008.13 1007.96 1007.75 1007.51 1007.27 1007.03 1006.81 1006.62 1006.48 1006.38 1006.32 1006.32 1006.35 1006.42 1006.52 1006.66 1006.83 1007.04 1007.29 1007.61 1007.98 1008.44 1008.96 1009.56 1010.22 1010.93 1011.68 1012.45 1013.22
1006.12 1006.04 1006.11 1006.29 1006.57 1006.89 1007.22 1007.52 1007.76 1007.92 1007.99 1007.97 1007.86 1007.67 1007.42 1007.13 1006.80 1006.46 1006.13 1005.80 1005.51 1005.25 1005.04 1004.87 1004.76 1004.70 1004.69 1004.74 1004.83 1004.96 1005.14 1005.37 1005.65 1005.98 1006.36 1006.82 1007.34 1007.92 1008.57 1009.27 1010.02 1010.80 1011.60 1012.40
1005.44 1005.50 1005.71 1006.02 1006.40 1006.80 1007.17 1007.46 1007.65 1007.71 1007.65 1007.47 1007.19 1006.82 1006.39 1005.94 1005.48 1005.03 1004.61 1004.23 1003.89 1003.61 1003.39 1003.22 1003.11 1003.06 1003.06 1003.12 1003.24 1003.41 1003.64 1003.92 1004.27 1004.66 1005.12 1005.64 1006.22 1006.86 1007.55 1008.29 1009.08 1009.88 1010.71 1011.53
1004.84 1005.03 1005.36 1005.77 1006.22 1006.65 1007.01 1007.26 1007.36 1007.31 1007.11 1006.77 1006.31 1005.78 1005.20 1004.61 1004.04 1003.51 1003.03 1002.61 1002.26 1001.99 1001.77 1001.62 1001.53 1001.50 1001.53 1001.62 1001.77 1001.98 1002.25 1002.58 1002.97 1003.43 1003.94 1004.51 1005.14 1005.81 1006.54 1007.31 1008.11 1008.94 1009.78 1010.62
1004.36 1004.65 1005.06 1005.52 1006.00 1006.42 1006.73 1006.90 1006.90 1006.72 1006.37 1005.88 1005.28 1004.61 1003.91 1003.22 1002.57 1001.99 1001.48 1001.05 1000.71 1000.46 1000.27 1000.15 1000.10 1000.10 1000.17 1000.29 1000.47 1000.72 1001.03 1001.40 1001.83 1002.32 1002.87 1003.47 1004.12 1004.82 1005.55 1006.33 1007.14 1007.97 1008.81 1009.66
1004.01 1004.37 1004.82 1005.30 1005.75 1006.12 1006.35 1006.41 1006.29 1005.98 1005.50 1004.88 1004.16 1003.39 1002.60 1001.85 1001.15 1000.54 1000.02 999.61 999.29 999.07 998.92 998.84 998.83 998.88 998.99 999.15 999.37 999.65 999.99 1000.39 1000.85 1001.36 1001.92 1002.53 1003.18 1003.88 1004.61 1005.38 1006.17 1006.99 1007.83 1008.66
1003.83 1004.22 1004.66 1005.11 1005.50 1005.78 1005.91 1005.86 1005.62 1005.19 1004.60 1003.88 1003.07 1002.23 1001.38 1000.59 999.87 999.24 998.73 998.32 998.02 997.82 997.71 997.67 997.70 997.79 997.94 998.15 998.41 998.72 999.09 999.52 999.99 1000.51 1001.08 1001.68 1002.32 1003.00 1003.71 1004.45 1005.22 1006.02 1006.83 1007.65
1003.82 1004.20 1004.61 1004.99 1005.29 1005.46 1005.48 1005.32 1004.98 1004.46 1003.78 1002.99 1002.12 1001.23 1000.35 999.52 998.78 998.13 997.61 997.19 996.89 996.70 996.59 996.57 996.63 996.75 996.93 997.18 997.48 997.84 998.25 998.70 999.19 999.72 1000.29 1000.89 1001.51 1002.17 1002.85 1003.56 1004.30 1005.06 1005.85 1006.65
1003.96 1004.31 1004.65 1004.94 1005.14 1005.21 1005.13 1004.87 1004.44 1003.86 1003.13 1002.29 1001.39 1000.46 999.55 998.69 997.91 997.23 996.66 996.20 995.86 995.62 995.49 995.46 995.51 995.65 995.86 996.14 996.49 996.89 997.35 997.84 998.37 998.92 999.50 1000.10 1000.72 1001.35 1002.01 1002.69 1003.40 1004.13 1004.89 1005.65
1004.20 1004.49 1004.75 1004.95 1005.05 1005.04 1004.87 1004.55 1004.07 1003.44 1002.69 1001.83 1000.91 999.96 999.02 998.11 997.27 996.51 995.85 995.30 994.87 994.56 994.36 994.27 994.30 994.43 994.65 994.97 995.36 995.82 996.33 996.88 997.47 998.07 998.67 999.29 999.91 1000.54 1001.19 1001.85 1002.53 1003.23 1003.95 1004.69
1004.46 1004.68 1004.86 1004.98 1005.01 1004.92 1004.71 1004.35 1003.85 1003.22 1002.47 1001.61 1000.69 999.72 998.73 997.76 996.83 995.96 995.17 994.49 993.93 993.49 993.18 993.02 992.98 993.08 993.31 993.65 994.10 994.62 995.20 995.83 996.48 997.14 997.80 998.46 999.10 999.74 1000.38 1001.02 1001.68 1002.35 1003.05 1003.75
1004.67 1004.82 1004.93 1004.99 1004.96 1004.84 1004.61 1004.25 1003.77 1003.16 1002.43 1001.60 1000.67 999.68 998.65 997.60 996.56 995.56 994.63 993.79 993.06 992.47 992.04 991.76 991.66 991.72 991.94 992.30 992.79 993.38 994.05 994.75 995.48 996.22 996.94 997.63 998.31 998.96 999.59 1000.23 1000.86 1001.51 1002.17 1002.85
1004.78 1004.86 1004.92 1004.93 1004.88 1004.76 1004.53 1004.21 1003.77 1003.21 1002.53 1001.73 1000.82 999.82 998.74 997.62 996.47 995.34 994.25 993.25 992.36 991.61 991.04 990.66 990.48 990.49 990.70 991.09 991.62 992.27 993.01 993.79 994.59 995.39 996.16 996.90 997.59 998.25 998.88 999.50 1000.10 1000.71 1001.33 1001.97
1004.75 1004.79 1004.81 1004.81 1004.76 1004.65 1004.47 1004.20 1003.82 1003.33 1002.72 1001.97 1001.09 1000.09 998.99 997.80 996.57 995.33 994.11 992.96 991.94 991.06 990.38 989.91 989.66 989.64 989.83 990.23 990.80 991.49 992.28 993.12 993.97 994.81 995.61 996.36 997.06 997.70 998.30 998.88 999.44 1000.00 1000.56 1001.13
1004.63 1004.63 1004.63 1004.62 1004.60 1004.53 1004.40 1004.20 1003.91 1003.50 1002.96 1002.28 1001.45 1000.48 999.38 998.17 996.90 995.59 994.29 993.06 991.95 990.99 990.24 989.70 989.41 989.37 989.56 989.96 990.54 991.26 992.07 992.92 993.78 994.62 995.41 996.13 996.79 997.38 997.93 998.44 998.92 999.41 999.89 1000.39
1004.46 1004.45 1004.45 1004.45 1004.45 1004.43 1004.37 1004.24 1004.03 1003.71 1003.26 1002.66 1001.90 1000.99 999.93 998.76 997.49 996.19 994.88 993.64 992.50 991.53 990.76 990.21 989.91 989.86 990.05 990.45 991.02 991.72 992.51 993.33 994.15 994.94 995.66 996.31 996.88 997.39 997.83 998.24 998.62 999.00 999.39 999.79
Thickness
5659 5666 5667 5666 5666 5666 5661 5658 5654 5658 5660 5667 5672 5674 5675 5675 5676 5675 5675 5675 5675 5673 5672 5672 5671 5670 5669 5669 5670 5669 5667 5666 5664 5664 5663 5661 5660 5659 5658 5657 5656 5655 5654 5653
5649 5657 5658 5655 5659 5659 5659 5658 5655 5655 5656 5666 5668 5668 5668 5668 5669 5668 5668 5668 5667 5667 5666 5665 5664 5664 5663 5664 5664 5663 5662 5661 5660 5658 5658 5657 5656 5655 5654 5652 5651 5650 5649 5648
5631 5643 5646 5638 5647 5650 5650 5653 5651 5647 5653 5658 5658 5659 5660 5661 5662 5662 5662 5661 5660 5659 5659 5659 5658 5657 5657 5658 5658 5657 5657 5656 5654 5653 5652 5652 5651 5650 5649 5647 5645 5644 5644 5643
5619 5628 5622 5634 5648 5649 5645 5644 5647 5649 5650 5652 5651 5652 5654 5655 5655 5655 5655 5655 5653 5652 5652 5652 5652 5652 5651 5651 5651 5651 5650 5650 5649 5648 5647 5646 5645 5643 5642 5641 5640 5639 5638 5638
5609 5611 5616 5629 5637 5638 5635 5634 5639 5640 5642 5643 5644 5645 5644 5647 5647 5647 5647 5646 5646 5646 5645 5645 5645 5645 5644 5643 5643 5644 5644 5644 5644 5643 5643 5642 5640 5639 5638 5636 5635 5634 5634 5634
5602 5605 5605 5618 5633 5638 5633 5624 5632 5633 5633 5633 5635 5629 5631 5638 5639 5639 5639 5639 5639 5639 5639 5638 5638 5638 5637 5636 5636 5637 5638 5639 5639 5638 5638 5637 5636 5634 5633 5631 5630 5629 5629 5629
5594 5596 5602 5617 5627 5630 5616 5616 5626 5626 5625 5625 5624 5624 5628 5630 5630 5630 5630 5630 5631 5631 5631 5630 5630 5630 5630 5630 5630 5631 5632 5633 5633 5633 5632 5632 5631 5629 5627 5626 5624 5623 5623 5623
5584 5586 5595 5613 5616 5612 5612 5618 5619 5619 5619 5619 5619 5620 5621 5622 5621 5621 5621 5622 5622 5622 5622 5622 5622 5622 5623 5623 5625 5625 5625 5626 5626 5627 5627 5627 5625 5623 5622 5620 5618 5617 5617 5617
5586 5589 5598 5604 5607 5610 5610 5610 5612 5612 5613 5613 5612 5612 5613 5613 5612 5612 5613 5613 5613 5613 5613 5614 5614 5614 5615 5617 5618 5619 5618 5619 5619 5620 5620 5620 5619 5618 5616 5614 5612 5611 5611 5611
5581 5589 5594 5598 5601 5603 5605 5605 5607 5607 5607 5607 5605 5605 5605 5604 5603 5603 5604 5605 5605 5605 5605 5606 5607 5608 5609 5611 5612 5611 5611 5612 5613 5613 5613 5613 5613 5612 5611 5609 5608 5607 5606 5607
5577 5585 5589 5593 5595 5597 5599 5600 5601 5601 5602 5601 5599 5598 5597 5596 5596 5596 5597 5597 5597 5597 5597 5598 5599 5600 5602 5604 5604 5604 5604 5605 5606 5606 5606 5606 5606 5606 5606 5606 5605 5604 5604 5603
5576 5582 5581 5585 5590 5592 5592 5593 5593 5594 5594 5594 5594 5592 5592 5590 5590 5590 5590 5590 5590 5590 5590 5591 5592 5593 5595 5596 5596 5596 5596 5598 5599 5599 5599 5600 5600 5600 5600 5600 5600 5600 5600 5599
5578 5581 5580 5583 5585 5587 5587 5587 5588 5589 5589 5589 5588 5587 5586 5584 5584 5584 5584 5584 5584 5584 5583 5584 5585 5586 5588 5588 5589 5589 5589 5590 5592 5593 5593 5593 5593 5593 5594 5595 5595 5594 5594 5594
5577 5577 5576 5578 5579 5581 5582 5583 5583 5584 5583 5584 5582 5581 5580 5579 5579 5579 5579 5579 5578 5578 5577 5577 5578 5580 5581 5581 5582 5582 5583 5584 5585 5586 5587 5587 5588 5588 5588 5589 5590 5590 5590 5590
5573 5573 5572 5573 5574 5574 5576 5577 5576 5576 5576 5576 5576 5575 5574 5573 5573 5573 5574 5574 5573 5572 5572 5571 5572 5573 5574 5575 5575 5577 5577 5577 5578 5579 5580 5580 5581 5581 5582 5583 5584 5584 5585 5586
5567 5568 5568 5568 5568 5569 5569 5570 5569 5568 5568 5568 5568 5568 5567 5567 5567 5567 5568 5568 5567 5566 5566 5566 5565 5566 5567 5568 5569 5569 5570 5571 5572 5573 5573 5574 5574 5575 5576 5577 5578 5579 5580 5581
5560 5560 5561 5562 5562 5563 5563 5564 5563 5562 5562 5562 5561 5561 5560 5560 5560 5560 5562 5562 5561 5561 5561 5560 5560 5561 5561 5562 5562 5563 5564 5565 5566 5567 5566 5567 5567 5568 5570 5571 5572 5573 5575 5575
5559 5559 5558 5558 5557 5557 5558 5559 5558 5558 5558 5558 5557 5556 5554 5554 5554 5554 5555 5555 5555 5555 5555 5555 5555 5555 5555 5555 5556 5556 5557 5558 5559 5560 5560 5560 5561 5562 5563 5565 5566 5568 5569 5569
5555 5554 5554 5554 5553 5553 5553 5553 5554 5554 5554 5553 5552 5551 5550 5549 5549 5549 5548 5548 5548 5548 5550 5550 5550 5550 5549 5549 5549 5549 5550 5551 5552 5553 5554 5554 5554 5556 5557 5558 5560 5561 5562 5563
5549 5549 5549 5548 5549 5548 5548 5548 5548 5549 5549 5548 5547 5546 5545 5545 5544 5543 5542 5541 5541 5542 5543 5543 5543 5543 5543 5542 5542 5543 5543 5544 5545 5547 5548 5548 5549 5550 5551 5552 5553 5554 5555 5556
5544 5544 5543 5543 5543 5543 5543 5543 5543 5543 5543 5542 5541 5540 5539 5539 5538 5537 5536 5536 5538 5537 5537 5536 5536 5536 5536 5536 5536 5536 5537 5538 5539 5541 5541 5542 5542 5543 5544 5545 5546 5548 5549 5550
5540 5539 5539 5539 5538 5537 5537 5537 5538 5538 5538 5537 5536 5535 5534 5533 5533 5532 5531 5531 5532 5532 5532 5531 5531 5531 5531 5530 5531 5531 5532 5533 5534 5535 5536 5536 5536 5537 5538 5539 5540 5541 5542 5543
5535 5535 5535 5534 5532 5532 5531 5531 5532 5532 5531 5531 5530 5530 5529 5528 5527 5527 5527 5528 5527 5527 5527 5527 5527 5526 5525 5525 5526 5526 5527 5528 5529 5530 5531 5530 5531 5532 5532 5533 5534 5535 5536 5537
5532 5531 5530 5529 5528 5527 5526 5526 5526 5526 5526 5526 5525 5525 5524 5523 5523 5523 5522 5522 5523 5523 5523 5522 5522 5521 5520 5521 5521 5522 5523 5524 5525 5526 5526 5526 5526 5526 5527 5528 5529 5529 5530 5531
5527 5526 5525 5524 5523 5522 5521 5521 5520 5520 5521 5521 5521 5520 5520 5519 5518 5518 5518 5518 5518 5518 5518 5517 5516 5516 5516 5517 5518 5518 5519 5520 5521 5521 5521 5521 5521 5522 5522 5523 5523 5524 5525 5525
5522 5521 5520 5520 5519 5518 5517 5516 5515 5515 5515 5515 5515 5515 5515 5515 5515 5514 5514 5515 5514 5513 5513 5513 5513 5512 5513 5514 5514 5515 5515 5516 5516 5517 5517 5516 5517 5517 5517 5518 5518 5519 5519 5520
5517 5516 5515 5514 5514 5514 5514 5512 5512 5512 5512 5511 5511 5511 5511 5511 5511 5511 5510 5510 5510 5510 5510 5510 5510 5509 5510 5510 5511 5511 5512 5512 5512 5511 5511 5511 5512 5512 5512 5513 5513 5514 5515 5515